Погода Гайны

Погода Гайны : погода сейчас, прогноз погоды и архив. Всё, что Вы хотите узнать о погоде Гайны!

Хотите узнать прогноз погоды Гайны? Тогда Вам сюда: Погода Гайны

Поиск расширенной информации на нашем сайте:

Другие новости

Новости СМИ2

Главная страница сайта

Новости сайта

03.07.2017

Напоминаем, что на нашем специализированном сайте Метеоцентр.Азия вы можете получить высокодетализированные автоматические прогнозы погоды по пунктам России, СНГ и мира в авиационном формате (включающие направление и скорость ветра, видимость, явления погоды, количество и форму облачности, нижнюю и верхнюю границу облачности).

Рекомендуем: оптовые базы в Спб

Погода Гайны - сегодня

Время (UTC), дата Ветер
(°,м/с) 
Видим.   Явления Облачность Т
(°С)
Тd
(°С)
f(%) Тe
(°С)
Pmin
(гПа)
dP
(гПа)
Po
(мм)
O2
(г/м3)
Тmin Tmax R s Состояние
почвы
09 19.07.18 090 (В) 20000 м    10/10 600 м кучево-дожд. 
[Cb calv]
+22.4 +17 72 +35  1015.4  745  274           
12 19.07.18 060 (СВ) 20000 м  гроза без осадков{ливн. осадки}  10/6 600 м кучево-дожд., средняя, верхняя 
[Cb cap|Ac lent|Ci fib]
+23.1 +17.5 71 +37  1015.4  745  273           
18 19.07.18 060 (СВ) 20000 м  {гроза}  10/1 600 м средняя, верхняя 
[Sc|Ac und|Ci fib]
+20.4 +15.7 74 +30  1016.4  0.6  745  276           
21 19.07.18 070 (В) 20000 м    8/3 600 м средняя, верхняя 
[Sc|Ac trans|Ci fib]
+17.3 +16.7 96 +30  1017.3  0.7  746  279           
00 20.07.18 070 (В) 20000 м    4/3 600 м средняя, верхняя 
[Sc|Ac lent|Ci fib]
+15.6 +15.5 99 +26  1018.4  0.9  746  281           
03 20.07.18 080 (В) 20000 м    3/1 600 м верхняя 
[Sc|Ci fib]
+18.5 +16.2 86 +30  1019.1  0.9  747  278  +15.6        сухая 
06 20.07.18 090 (В) 20000 м    4/3 600 м верхняя 
[Cu Sc|Ci fib]
+23.2 +15.2 61 +32  1019.1  0.4  747  274           
09 20.07.18 090 (В) 20000 м    8/5 600 м кучево-дожд., средняя 
[Cb calv|Ac As]
+24.7 +13.3 49 +31  1019.1  0.1  747  274           
12 20.07.18 100 (В) 20000 м    8/5 600 м кучево-дожд., средняя, верхняя 
[Cb calv|Ac As|Ci fib]
+25.3 +13.2 47 +31  1018.9  -0.2  747  273           
18 20.07.18 120 (ЮВ) 20000 м    1/1 600 м 
[Sc]
+17.8 +13.1 74 +25  1020.6  1.4  748  280           
21 20.07.18 110 (В) 20000 м    1/0 верхняя 
[Ci fib]
+14.6 +10.7 77 +17  1022.4  1.4  749  285           
00 21.07.18 090 (В) 20000 м    ясно 
+12.4 +10.2 86 +13  1023.2  0.6  750  287           
06 21.07.18 100 (В) 20000 м    3/3 600 м 
[Cu hum]
+20.9 +11.6 55 +24  1023.1  -0.2  750  279           
09 21.07.18 110 (В) 20000 м    5/5 600 м 
[Cu med, cong]
+22.3 +9.9 45 +23  1022.5  -0.5  750  278           
12 21.07.18 090 (В) 20000 м    3/3 600 м 
[Cu hum]
+23.3 +10.8 45 +26  1021.5  -0.9  749  276           
15 21.07.18 100 (В) 20000 м    ясно 
+22.5 +9.9 45 +24  1020.7  -0.9  749  277    +23.6       
18 21.07.18 110 (В) 20000 м    ясно 
+16.4 +10.8 69 +19  1021.3  0.2  749  283           
21 21.07.18 130 (ЮВ) 20000 м    ясно 
+13.4 +10.6 83 +17  1022.7  1.1  749  286           
00 22.07.18 120 (ЮВ) 20000 м    ясно 
+11.1 +8.8 86 +11  1024.4  1.4  751  289           
06 22.07.18 130 (ЮВ) 20000 м    3/3 1000 м 
[Cu hum]
+20.1 +8.2 46 +20  1024  -0.3  751  280           
09 22.07.18 110 (В) 20000 м    1/0 верхняя 
[Ci fib]
+21.6 +6.8 38 +22  1023.2  -0.3  750  279           
12 22.07.18 120 (ЮВ) 20000 м    ясно 
+22.6 +6.1 34 +23  1021.9  -1.2  749  278           
15 22.07.18 130 (ЮВ) 20000 м    ясно 
+21.8 +7.7 40 +22  1021.3  -0.6  749  278    +22.8       
18 22.07.18 170 (Ю) 20000 м    ясно 
+13.9 +10.9 82 +17  1022.4  0.1  749  285           
21 22.07.18 210 (ЮЗ) 20000 м    1/0 верхняя 
[Ci fib]
+11.3 +9.3 87 +12  1023.2  0.6  749  288           
Время (UTC), дата Ветер
(°,м/с) 
Видим.   Явления Облачность Т
(°С)
Тd
(°С)
f(%) Тe
(°С)
Pmin
(гПа)
dP
(гПа)
Po
(мм)
O2
(г/м3)
Тmin Tmax R s Состояние
почвы

Для получения пояснительной информации подведите курсор к названию столбца.

ПОГОДА Гайны - архив

Всё, что Вы хотите узнать о погоде Гайны - удобно и подробно!

Выберите нужную дату (начиная с 1 января 2015* года) и нажмите кнопку "Найти".
Будут отображены архивные сводки погоды по пункту Гайны, начиная с указанной даты.


Отображать данные в формате CSV (для использования в таблицах Excel)


Внимание! Наш архив погоды предназначен исключительно для личного некоммерческого использования в познавательных целях. Если Вам необходимы официальные справки о состоянии погоды (для производственных, юридических, коммерческих и т.п. целей), обращайтесь в органы Росгидромета.

*Примечание: данная дата относится к архиву по метеостанциям СССР (Россия, СНГ, Балтия).
Архив по метеостанциям Зарубежной Европы и Азии (кроме Китая) хранится 10 дней, по другим регионам земного шара (Китай, Африка, Америка, Австралия, Океания) - 1 день.

Гайны - район местоположения метеостанции


Название, широта, долгота, высота метеостанции:
Гайны 60.3°ш. 54.3°д. 198 м над ур. моря [Российская Федерация]

Дополнительная информация

В oтличие oт бoльшинства пoгoдных сайтoв мы публикуем пoдрoбную метеoинфoрмацию в детальнoм прoфессиoнальнoм фoрмате.

Характеристики температуры и влажнoсти вoздуха измеряются на высoте 2 м в тени вдали oт зданий и деревьев.
Скoрoсть ветра измеряется на высoте 10 м (на урoвне рoста челoвека скoрoсть ветра ниже в 1.5-2 раза). Если метеoстанция нахoдится в гoрoде или в лесу, тo скoрoсть ветра занижена на 2-4 м/с пo сравнению с oткрытым местoм. Скoрoсть ветра над акватoриями крупных рек и oзёр, а также на вершинах хoлмoв на 2-5 м/с выше, чем в oбычных услoвиях.
Атмoсфернoе давление в разных тoчках местнoсти мoжет значительнo oтличаться oт давления на метеoстанции, в зависимoсти oт услoвий рельефа (при пoдъёме на 10 м давление пoнижается примернo на 1 мм рт.ст.).